Location: La Estación
(39.9833°N, 3.9500°W)
Time: 15:14:34
(UTC+00:00)

NOSS 2-2 (E) - Pass Details

Date: 14 June 2025
Orbit: 389 x 1729 km, 63.3° (Epoch: 19 July)

Event Time Altitude Azimuth Distance (km) Brightness Sun altitude
Rises 20:16:53 0° 330° (NNW) 2,668 8.3 -5.7°
Reaches altitude 10° 20:18:49 10° 335° (NNW) 1,902 7.2 -6.0°
Maximum altitude 20:23:00 57° 55° (NE) 844 4.2 -6.6°
Drops below altitude 10° 20:28:53 10° 134° (SE) 2,652 6.1 -7.5°
Enters shadow 20:29:13 - 134° (SE) 2,778 6.2 -7.6°
